Tracking 29892 objects as of 21-Nov-2024
HD Live streaming from Space Station
objects crossing your sky now

STARLINK-5366

Track STARLINK-5366 now!
10-day predictions
STARLINK-5366 is classified as:


NORAD ID: 55499
Int'l Code: 2023-015BC
Perigee: 564.9 km
Apogee: 567.4 km
Inclination: 43.0 °
Period: 95.8 minutes
Semi major axis: 6937 km
RCS: Unknown
Launch date: February 2, 2023
Source: United States (US)
Launch site: AIR FORCE EASTERN TEST RANGE (AFETR)
Your satellite tracking list
Your tracking list is empty




NASA's NSSDC Master Catalog

Two Line Element Set (TLE):
1 55499U 23015BC  24325.66032250 -.00000072  00000-0  97491-5 0  9998
2 55499  43.0064  34.2036 0001826 264.0004  96.0630 15.02550966100051
Source of the keplerian elements: AFSPC